Total_Precipitation_Accumulation
1.18 1.22 1.28 1.27 1.31 1.44 1.56 1.60 1.58 1.52 1.51 1.51 1.26 1.10 1.01 1.02 1.12 1.17 1.28 1.08 0.73 0.58 0.52 0.52 0.57 0.64 0.72 0.85 0.99 1.13 1.25 1.37 1.48 1.62 1.79 1.90 1.97 2.02
1.31 1.40 1.40 1.34 1.38 1.45 1.50 1.62 1.73 1.74 1.63 1.48 1.31 1.19 1.11 0.97 0.99 0.96 1.03 0.91 0.67 0.56 0.50 0.47 0.46 0.48 0.54 0.61 0.70 0.82 0.93 1.11 1.28 1.39 1.50 1.60 1.70 1.77
1.20 1.23 1.22 1.25 1.30 1.25 1.34 1.47 1.63 1.77 1.64 1.53 1.45 1.41 1.33 1.24 1.10 0.91 0.79 0.70 0.62 0.59 0.51 0.46 0.45 0.46 0.46 0.48 0.53 0.60 0.71 0.88 1.04 1.14 1.26 1.41 1.52 1.60
1.22 1.14 1.07 1.13 1.22 1.23 1.32 1.35 1.42 1.63 1.63 1.61 1.60 1.62 1.52 1.34 1.23 1.10 0.91 0.79 0.75 0.69 0.58 0.50 0.44 0.44 0.43 0.44 0.49 0.54 0.63 0.73 0.88 0.98 1.03 1.06 1.19 1.37
1.16 1.09 1.01 1.02 1.06 1.15 1.26 1.31 1.31 1.38 1.52 1.56 1.59 1.66 1.64 1.44 1.26 1.14 1.05 1.06 0.98 0.81 0.63 0.53 0.47 0.43 0.42 0.41 0.49 0.58 0.70 0.72 0.74 0.83 0.92 0.99 1.03 1.09
0.90 0.85 0.89 1.00 1.06 1.05 1.04 1.08 1.14 1.24 1.33 1.40 1.49 1.61 1.66 1.59 1.37 1.25 1.23 1.19 1.12 0.86 0.73 0.60 0.51 0.44 0.40 0.36 0.39 0.53 0.68 0.75 0.81 0.82 0.86 0.92 0.99 1.04
0.71 0.58 0.58 0.75 0.89 0.92 0.86 0.90 0.95 1.03 1.09 1.19 1.30 1.45 1.55 1.62 1.44 1.27 1.22 1.30 1.26 1.14 0.98 0.80 0.66 0.58 0.54 0.51 0.44 0.44 0.50 0.61 0.72 0.86 1.01 1.11 1.16 1.17
0.56 0.51 0.50 0.52 0.55 0.57 0.62 0.66 0.74 0.82 0.94 1.10 1.23 1.31 1.34 1.43 1.52 1.50 1.44 1.39 1.40 1.38 1.37 1.30 1.03 0.93 0.89 0.83 0.67 0.46 0.37 0.44 0.58 0.71 0.95 1.21 1.44 1.52
0.46 0.49 0.40 0.36 0.40 0.40 0.40 0.39 0.42 0.48 0.60 0.83 1.05 1.15 1.26 1.28 1.49 1.55 1.57 1.67 1.69 1.70 1.65 1.72 1.45 1.18 1.01 0.93 0.82 0.59 0.44 0.39 0.47 0.60 0.71 0.92 1.20 1.52
0.41 0.44 0.44 0.45 0.46 0.46 0.45 0.43 0.39 0.37 0.39 0.47 0.68 0.94 1.15 1.36 1.43 1.51 1.59 1.67 1.71 1.60 1.54 1.65 1.59 1.46 1.23 0.94 0.82 0.72 0.60 0.51 0.49 0.56 0.58 0.63 0.76 0.99
0.45 0.46 0.46 0.47 0.46 0.35 0.38 0.42 0.43 0.44 0.36 0.36 0.46 0.69 0.89 1.00 1.21 1.41 1.54 1.47 1.42 1.26 1.10 1.20 1.33 1.38 1.42 1.26 0.95 0.86 0.74 0.62 0.59 0.60 0.58 0.58 0.62 0.69
0.63 0.60 0.48 0.42 0.37 0.27 0.33 0.43 0.43 0.43 0.48 0.44 0.38 0.46 0.60 0.74 0.81 0.93 1.15 1.26 1.16 1.12 0.95 0.85 0.87 0.98 1.11 1.08 0.93 0.87 0.88 0.80 0.67 0.65 0.66 0.65 0.70 0.67
0.76 0.73 0.65 0.45 0.32 0.28 0.28 0.37 0.40 0.44 0.55 0.60 0.59 0.59 0.70 0.82 0.79 0.76 0.85 0.98 1.00 0.88 0.82 0.86 0.83 0.75 0.73 0.78 0.80 0.72 0.76 0.86 0.85 0.76 0.71 0.73 0.78 0.82
0.90 0.87 0.79 0.55 0.39 0.33 0.32 0.32 0.29 0.31 0.43 0.55 0.59 0.58 0.63 0.73 0.80 0.78 0.80 0.83 0.87 0.82 0.80 0.84 0.90 0.85 0.71 0.61 0.61 0.58 0.57 0.64 0.77 0.96 1.04 1.08 0.98 0.95
0.99 0.99 0.82 0.63 0.53 0.43 0.39 0.41 0.37 0.35 0.46 0.51 0.52 0.53 0.54 0.65 0.83 0.93 0.95 0.93 0.91 0.80 0.70 0.66 0.73 0.87 0.82 0.65 0.55 0.52 0.51 0.59 0.70 0.87 0.98 1.08 1.15 1.18
0.94 1.00 0.88 0.74 0.65 0.57 0.51 0.49 0.47 0.47 0.54 0.55 0.56 0.61 0.64 0.71 0.79 0.87 0.93 0.94 0.90 0.76 0.67 0.62 0.62 0.73 0.81 0.73 0.62 0.59 0.57 0.65 0.72 0.87 1.04 1.11 1.12 1.20
0.99 1.04 1.07 0.96 0.84 0.75 0.71 0.73 0.72 0.67 0.61 0.65 0.69 0.71 0.70 0.71 0.76 0.81 0.84 0.86 0.81 0.70 0.60 0.63 0.66 0.72 0.74 0.72 0.68 0.61 0.57 0.57 0.59 0.69 0.85 0.99 1.10 1.17
0.95 1.00 1.10 1.09 1.01 0.93 0.87 0.88 0.88 0.82 0.76 0.77 0.76 0.75 0.73 0.71 0.73 0.78 0.79 0.79 0.77 0.72 0.63 0.57 0.61 0.69 0.76 0.73 0.62 0.55 0.52 0.48 0.51 0.60 0.66 0.69 0.74 0.83
0.85 0.92 1.01 1.07 1.03 1.00 0.94 0.93 0.90 0.90 0.89 0.84 0.80 0.79 0.76 0.71 0.70 0.72 0.72 0.76 0.76 0.77 0.75 0.70 0.61 0.52 0.54 0.56 0.52 0.45 0.48 0.46 0.50 0.55 0.62 0.58 0.55 0.61
0.80 0.86 0.91 0.96 0.96 0.97 0.96 0.97 0.94 0.94 0.90 0.86 0.80 0.77 0.75 0.70 0.70 0.71 0.67 0.66 0.71 0.76 0.80 0.74 0.64 0.51 0.43 0.50 0.55 0.51 0.46 0.54 0.54 0.52 0.51 0.51 0.51 0.50
0.78 0.82 0.83 0.84 0.87 0.91 0.90 0.93 0.92 0.87 0.84 0.84 0.79 0.73 0.70 0.67 0.66 0.67 0.67 0.67 0.68 0.70 0.69 0.61 0.55 0.64 0.67 0.66 0.66 0.65 0.59 0.55 0.64 0.60 0.56 0.53 0.52 0.51
0.75 0.77 0.73 0.72 0.76 0.81 0.84 0.87 0.84 0.83 0.83 0.78 0.75 0.70 0.64 0.61 0.59 0.60 0.61 0.61 0.61 0.62 0.65 0.72 0.74 0.71 0.69 0.61 0.55 0.61 0.69 0.66 0.65 0.71 0.66 0.62 0.54 0.45
0.71 0.66 0.61 0.62 0.65 0.69 0.71 0.73 0.75 0.78 0.75 0.72 0.74 0.69 0.62 0.60 0.59 0.60 0.58 0.57 0.59 0.64 0.73 0.80 0.80 0.70 0.66 0.66 0.64 0.63 0.67 0.72 0.71 0.69 0.64 0.58 0.54 0.48